Change the Weather History Date:

Wednesday, November 9, 2011

  Actual Average Record
Temperature  
Mean Temperature 26 °F -  
Max Temperature 37 °F 37 °F 66 °F (1999)
Min Temperature 14 °F 22 °F 3 °F (1973)
Degree Days  
Heating Degree Days 40    
Moisture  
Dew Point 23 °F    
Average Humidity 76    
Maximum Humidity 89    
Minimum Humidity 56    
Precipitation  
Precipitation 0.00 in - - ()
Sea Level Pressure  
Sea Level Pressure 30.08 in    
Wind  
Wind Speed 9 mph (WNW)    
Max Wind Speed 21 mph    
Max Gust Speed 28 mph    
Visibility 9 miles    
Events Snow    
Averages and records for this station are not official NWS values.
T = Trace of Precipitation, MM = Missing Value Source: NWS Daily Summary

Daily Weather History Graph

Daily Weather History Graph

Search for Another Location

Airport or City:

Trip Planner

Search our weather history database for the weather conditions in past years. The results will help you decide how hot, cold, wet, or windy it might be!

Date:

Astronomy

Nov. 09, 2011 Rise Set
Actual Time 7:14 AM CST 4:53 PM CST
Civil Twilight 6:41 AM CST 5:25 PM CST
Nautical Twilight 6:05 AM CST 6:02 PM CST
Astronomical Twilight 5:29 AM CST 6:37 PM CST
Moon 4:04 PM CST (11/9) 6:10 AM CST (11/9)
Length of Visible Light 10h 44m
Length of Day
9h 39m
Waxing Gibbous, 99% of the Moon is Illuminated
Nov 9
Waxing Gibbous
Nov 10
Full
Nov 18
Last Quarter
Nov 25
New
Dec 2
First Quarter

Hourly Weather History & Observations

Time (CST) Temp. Windchill Dew Point Humidity Pressure Visibility Wind Dir Wind Speed Gust Speed Precip Events Conditions
12:53 AM 26.1 °F 20.5 °F 19.0 °F 75% 30.16 in 10.0 mi SSE 4.6 mph - N/A   Clear
1:53 AM 25.0 °F 17.1 °F 19.9 °F 81% 30.15 in 10.0 mi SE 6.9 mph - N/A   Clear
2:53 AM 24.1 °F 19.7 °F 19.0 °F 81% 30.15 in 10.0 mi SSE 3.5 mph - N/A   Clear
3:53 AM 24.1 °F - 19.0 °F 81% 30.13 in 10.0 mi Calm Calm - N/A   Clear
4:53 AM 17.1 °F - 14.0 °F 88% 30.13 in 10.0 mi Calm Calm - N/A   Clear
5:53 AM 14.0 °F - 10.9 °F 88% 30.14 in 10.0 mi Calm Calm - N/A   Clear
6:53 AM 18.0 °F - 14.0 °F 84% 30.13 in 10.0 mi Calm Calm - N/A   Clear
7:53 AM 19.9 °F 13.4 °F 17.1 °F 89% 30.14 in 10.0 mi WNW 4.6 mph - N/A   Clear
8:53 AM 28.9 °F 20.4 °F 24.1 °F 82% 30.14 in 10.0 mi WNW 9.2 mph - N/A   Clear
9:53 AM 33.1 °F 25.5 °F 25.0 °F 72% 30.13 in 10.0 mi WNW 9.2 mph - N/A   Clear
10:53 AM 35.1 °F 25.9 °F 24.1 °F 64% 30.13 in 10.0 mi WNW 13.8 mph - N/A   Clear
11:53 AM 37.4 °F 29.8 °F 23.0 °F 56% 30.04 in 10.0 mi WNW 11.5 mph - N/A   Clear
12:53 PM 37.9 °F 28.9 °F 24.1 °F 57% 30.09 in 9.0 mi WNW 16.1 mph - 0.00 in Snow Light Snow
1:45 PM 37.4 °F 26.9 °F 24.8 °F 60% 30.02 in 10.0 mi WNW 20.7 mph - 0.00 in   Mostly Cloudy
1:53 PM 37.0 °F 27.7 °F 24.1 °F 59% 30.08 in 10.0 mi WNW 16.1 mph 24.2 mph 0.00 in   Mostly Cloudy
2:42 PM 35.6 °F 25.9 °F 24.8 °F 65% 30.00 in 10.0 mi WNW 16.1 mph - 0.00 in   Mostly Cloudy
2:53 PM 36.0 °F 27.5 °F 24.1 °F 62% 30.06 in 9.0 mi WNW 12.7 mph - 0.00 in Snow Light Snow
3:53 PM 35.1 °F 24.5 °F 24.1 °F 64% 30.06 in 10.0 mi NW 18.4 mph 27.6 mph 0.00 in   Overcast
4:53 PM 32.0 °F 20.8 °F 26.1 °F 79% 30.07 in 10.0 mi WNW 17.3 mph - N/A   Overcast
5:53 PM 30.9 °F 18.4 °F 25.0 °F 79% 30.08 in 10.0 mi NW 20.7 mph 26.5 mph 0.00 in   Overcast
6:53 PM 30.9 °F 20.2 °F 25.0 °F 79% 30.08 in 7.0 mi NW 15.0 mph 25.3 mph 0.00 in Snow Light Snow
7:53 PM 30.9 °F 20.2 °F 26.1 °F 82% 30.06 in 5.0 mi NW 15.0 mph - 0.00 in Snow Light Snow
8:53 PM 30.9 °F 21.7 °F 26.1 °F 82% 30.05 in 5.0 mi NW 11.5 mph 20.7 mph 0.00 in Snow Light Snow
9:11 PM 30.2 °F 19.3 °F 26.6 °F 86% 29.99 in 9.0 mi NW 15.0 mph - 0.00 in   Overcast
9:53 PM 30.9 °F 21.7 °F 26.1 °F 82% 30.04 in 10.0 mi NW 11.5 mph - 0.00 in   Overcast
10:13 PM 30.2 °F 19.3 °F 26.6 °F 86% 29.98 in 10.0 mi NW 15.0 mph - N/A   Overcast
10:53 PM 30.9 °F 20.7 °F 26.1 °F 82% 30.03 in 6.0 mi NW 13.8 mph - 0.00 in Snow Light Snow
11:53 PM 30.9 °F 20.2 °F 27.0 °F 85% 30.02 in 6.0 mi NW 15.0 mph 23.0 mph 0.00 in Snow Light Snow